Погода в Кирово

Беларусь     52°54′44″N   30°19′16″E
темп.,
°C
ветер,
м/с
пор.,
м/с
влажн.,
%
обл.,
%
осадки,
мм/ч
давл.,
гПа
погр.,
м
17 апреля, сб
сб1700:00+7всв348839 0.0 101558
03:00+6в379368 0.0 1016149
06:00+5вюв36965 0.0 1017134
09:00+8вюв34795 0.0 1018461
12:00+12в335881 0.0 10181237
15:00+14ссв3449100 0.0 10171746
18:00+13ссз2558100 0.2 1016274
21:00+10ссз4985100 0.9 1016483
18 апреля, вс
вс1800:00+9с51086100 0.0 1015583
03:00+6всв61088100 0.1 1016766
06:00+5всв51083100 0.0 1018591
09:00+8всв686977 0.0 10181021
12:00+10св6862100 0.1 10181527
15:00+11ссв575976 0.1 10181454
18:00+11св586452 0.4 10181238
21:00+7ссв388270 0.5 1019169
19 апреля, пн
пн1900:00+6св48935 0.0 1019239
03:00+5ссв499684 0.0 1019256
06:00+5ссв51193100 0.0 1019472
09:00+6ссв61088100 0.1 1019755
12:00+8св6880100 0.1 1018899
15:00+8св4776100 0.4 1017738
18:00+8св687778 0.6 1016910
21:00+6св6108884 1.2 1015781
20 апреля, вт
вт2000:00+4ссв369733 0.7 1014135
03:00+4св35956 0.9 101285
06:00+2в33925 0.0 101158
09:00+7всв347335 0.0 1010403
12:00+9св4680100 0.0 1007623
15:00+8св7986100 0.3 1004650
18:00+5ссв71190100 0.2 1001825
21:00+3ссз71196100 2.6 999548
21 апреля, ср
ср2100:00+2зсз61197100 2.3 997486
03:00+3з61297100 3.8 997804
06:00+4з81390100 0.4 9981119
09:00+5юз81387100 0.6 10001029
12:00+8зюз81375100 0.2 10031605
15:00+10юз91267100 0.7 10041684
18:00+8зюз71281100 0.6 10061081
21:00+6зюз61086100 0.8 1009998